STARLINK-5290, 54157

Orbit data source: Space-Track

STARLINK-5290, 54157 is a payload satellite owned by SpaceX/Seattle (US) in LEO that was launched on Fri, 28 Oct 2022 UTC via an FALCON 9 launch vehicle from the Air Force Western Test Range (AFWTR). Payload-class satellites include a variety of spacecraft equipped with specific instruments for various scientific and technological missions. These include communications satellites like Starlink; space stations such as the ISS; scientific satellites like the Hubble; Earth observation satellites from companies like Planet Labs, Umbra, and HawkEye 360; GPS; miniature CubeSats for education and research; and military/defense satellites.

Loading next visibility...
Identifier
54157, 2022-141A
Orbit
LEO
Country
Flag of USUS
Related business
Manufacturer
SpaceX/Seattle
Mission
Operational Commercial Communications
Bus & Motor
STARLINK, Unknown motor
Mass
305 kg wet, ~290 kg dry
Launch date (UTC)
2022-10-28 (4 years ago)
Launch vehicle
FALCON 9
Launch site
Air Force Western Test Range (AFWTR)
Object type
Payload
Rocket body
Debris
Shape & HBR
Box + 1 Pan, 10.1 m
Radar Cross Section
13.562 m², Large (>1 m²)

Expand to show TLE details & history
Last TLE update: 3 days ago

TLE from 3 days ago
0 STARLINK-5290
1 54157U 22141A   26170.67061414 -.00000921  00000-0 -39803-4 0  9998
2 54157  53.1597 276.1469 0001321  86.7495 273.3648 15.08828038201116
Epoch: 2026-06-19T16:05Z
TLE epoch observation values (Epoch: 2026-06-19T16:05:41.061Z)
Latitude
Longitude
126.82956°
Altitude
540.618 km
Speed
7.593 km/s
True Right ascension
18h 24m 35s
True Declination
0° 00' 00"
Sunlit
Object was in full shadow at epoch
Visualization orbit readout
Latitude
Unknown
Longitude
Unknown
Altitude
Unknown
Speed
Unknown
Apparent Right ascension
Unknown
Apparent Declination
Unknown
Sunlit
N/A
Visualization observer readout
Local Sidereal Time
21:43:06
Azimuth
Unknown
Elevation
Unknown
Doppler factor
Unknown
Orbital elements
Apogee altitude
540.948 km
Perigee altitude
539.12 km
Semi-major axis
6,918.171 km
Eccentricity
0.00013
Inclination
53.1597°
RAAN
276.1469°
Arg. of periapsis
86.7495°
True anomaly
273.34969°
Mean anomaly
273.3648°
Eccentric anomaly
273.35724°
Mean motion
3.77187 °/min
Orbital period
95.44 mins
BSTAR
-0.000039803
Loading maneuver chart data...
Computing Atmospheric mass density...
Loading historical data...
Loading historical data...
Loading historical data...
Loading historical data...
Loading historical data...
Loading historical data...
Loading historical data...

Documentation

Showing up to 5 results
|